Погода в Орловке

Россия / Республика Крым     44°43′45″N   33°34′52″E
темп.,
°C
ветер,
м/с
пор.,
м/с
влажн.,
%
обл.,
%
осадки,
мм/ч
давл.,
гПа
погр.,
м
15 апреля, чт
чт1500:00+10ююв588095 0.3 1013114
03:00+10ююз7118560 0.8 1014305
06:00+9ююз698890 0.1 1015507
09:00+9ююз8107974 0.1 1016750
12:00+9юз9108096 0.0 1017822
15:00+9юз7982100 0.1 1017856
18:00+9зюз5679100 0.1 1017749
21:00+9зюз457885 0.2 1017478
16 апреля, пт
пт1600:00+8ююз557981 0.0 1018454
03:00+8ююз66836 0.0 1018474
06:00+8ююз568317 0.0 1017405
09:00+9ююз677995 0.1 1018384
12:00+10юз688164 0.1 1019486
15:00+10юз68823 0.1 1020660
18:00+9зюз567912 0.0 1020673
21:00+8зсз448071 0.0 1022546
17 апреля, сб
сб1700:00+8зсз017314 0.0 1022500
03:00+8в11742 0.0 1022222
06:00+7в2275100 0.0 1022129
09:00+8св2367100 0.0 1023212
12:00+10ссз216054 0.0 1023253
15:00+9зсз43665 0.0 1022264
18:00+9зюз4372100 0.0 1022251
21:00+9ссв2276100 0.0 1021102
18 апреля, вс
вс1800:00+9св3471100 0.0 1019151
03:00+9св456899 0.1 1017163
06:00+9св5563100 0.1 1017189
09:00+9всв5775100 0.6 1017207
12:00+10ссв3475100 0.1 1018145
15:00+12ссв34719 0.1 1017109
18:00+11зюз2479100 0.0 1018131
21:00+11ю3482100 0.0 101976
19 апреля, пн
пн1900:00+10ююз3386100 0.0 101856
03:00+10ююв0186100 0.0 101812
06:00+10с1184100 0.0 101711
09:00+11сз1182100 0.0 101846
12:00+11с3380100 0.0 1016123
15:00+11з1285100 0.0 101453
18:00+12з2280100 0.0 101169
21:00+13св5776100 0.0 100882